Regional Weather Roundup
Issued by NWS

Home | Current Version | Previous Version | Text Only | Print | Product List | Glossary On
Versions: 1 2 3 4 5 6 7 8 9 10 11 12 13 14 15 16 17 18 19 20 21 22 23 24 25 26 27 28 29 30 31 32 33 34 35 36 37 38 39 40 41 42 43 44 45 46 47 48 49 50
000
ASUS43 KFSD 231510
RWRSD

WEATHER ROUNDUP FOR SOUTH DAKOTA
NATIONAL WEATHER SERVICE SIOUX FALLS SD
1000 AM CDT SUN JUL 23 2017

NOTE: "FAIR" INDICATES FEW OR NO CLOUDS BELOW 12,000 FEET WITH NO
SIGNIFICANT WEATHER AND/OR OBSTRUCTIONS TO VISIBILITY.


SDZ001>005-009-010-012>017-231600-
NORTHWEST AND NORTH CENTRAL SOUTH DAKOTA

CITY           SKY/WX    TMP DP  RH WIND       PRES   REMARKS
BUFFALO          N/A     71  51  49 S6        30.05S
FAITH            N/A     74  53  48 S8        30.10S
MOBRIDGE       SUNNY     73  58  59 N8        30.06S
$$

SDZ012>016-024>037-041>051-057-063-072>074-231600-
SOUTHWEST AND SOUTH CENTRAL SOUTH DAKOTA

CITY           SKY/WX    TMP DP  RH WIND       PRES   REMARKS
RAPID CTY ARPT SUNNY     76  46  34 SE7       30.13S
PIERRE         SUNNY     75  55  49 VRB3      30.06S
CUSTER         SUNNY     71  41  33 E15       30.25S
ELLSWORTH AFB  SUNNY     76  46  34 SE7       30.12S
PHILIP         SUNNY     75  53  46 E6        30.08F
PINE RIDGE     SUNNY     77  53  43 E8        30.12S
SPEARFISH      FAIR      73  45  35 CALM      30.15S
WINNER         FAIR      76  55  48 E3        30.08S
$$

SDZ004>011-016>023-039-040-231600-
NORTHEAST SOUTH DAKOTA

CITY           SKY/WX    TMP DP  RH WIND       PRES   REMARKS
ABERDEEN       SUNNY     71  60  68 N10       30.04S
WATERTOWN      MOSUNNY   69  60  73 NW15      30.01S
BROOKINGS      MOSUNNY   70  60  70 N9        30.02S
SISSETON         N/A     67  61  81 N15       30.00R
$$

SDZ017-020-022-023-036>040-048>070-231600-
SOUTHEAST SOUTH DAKOTA

CITY           SKY/WX    TMP DP  RH WIND       PRES   REMARKS
SIOUX FALLS    MOSUNNY   75  63  66 N8        30.01R
HURON          SUNNY     71  59  65 N12       30.04R
CHAMBERLAIN    SUNNY     77  58  51 NW5       30.06S
MITCHELL       SUNNY     74  62  66 N12       30.04R
YANKTON        SUNNY     76  60  57 N7        30.02R
$$

ABBREVIATIONS USED IN REMARKS
   TC - TEMPERATURE IN CELSIUS
  WCI - WIND CHILL INDEX
   HX - HEAT INDEX
  VSB - VISIBILITY





USA.gov is the U.S. government's official web portal to all federal, state and local government web resources and services.